Woman Race

La Liégeoise, Le Jogging Des Femmes Contre Le Cancer - Liège (6.00 km)

dimanche 19 septembre 2021

Vous pouvez trouver Le classement original sur : http://ultratiming.be  
 
LA LIÉGEOISE, LE JOGGING DES FEMMES CONTRE LE CANCER - LIÈGE
DISTANCE : 3.00 km
dimanche 19 septembre 2021
 
Place Dos NOM Catégorie Pl/cat Temps Temps/km Vitesse
01:00:00              
1 3057 BELLOT CHARLINE ESPF 1 0:19:04 06:21 9.44
2 3071 STAS ELÉA POF 1 0:20:40 06:53 8.71
3 3042 FRAITURE CLARA BEF 1 0:21:49 07:16 8.25
4 3005 CHIKLHADZE NANCY BEF 2 0:22:28 07:29 8.01
5 3448 RENETTE CLOÉ JUF 1 0:23:08 07:43 7.78
6 3050 COURARD CHARLOTTE SEF 1 0:23:17 07:46 7.73
7 3010 DOMINIQUE MÉLODIE SEF 2 0:24:12 08:04 7.44
8 3011 EBERHARD FANNY SEF 3 0:24:12 08:04 7.44
9 3045 LAHAYE VALERIE SEF 4 0:24:28 08:09 7.36
10 3043 DEBROUX DELPHINE V1F 1 0:24:47 08:16 7.26
11 6018 DEBATTY MURIEL V1F 2 0:24:55 08:18 7.22
12 3447 GRAILET AURORE SEF 5 0:25:18 08:26 7.11
13 3084 PETERS NINA BEF 3 0:25:46 08:35 6.99
14 3096 BAOUAB YOUSRA SEF 6 0:25:48 08:36 6.98
15 3550 IARA CARMELINA V2F 1 0:25:49 08:36 6.97
16 3080 LACROIX MURIEL SEF 7 0:26:00 08:40 6.92
17 3019 LEGRAND CHLOE MIF 1 0:26:36 08:52 6.77
18 3085 DIKENDA ISABELLE V1F 3 0:26:54 08:58 6.69
19 3051 RAFFAELLI MARTINE V2F 2 0:26:56 08:59 6.68
20 3073 NATALIS CLARA SEF 8 0:26:58 08:59 6.67
21 3037 RONCHAINE MARIE SEF 9 0:27:24 09:08 6.57
22 3083 VERONESI MELANIE V1F 4 0:27:27 09:09 6.56
23 3009 DHEUR OCEAN CAF 1 0:28:05 09:22 6.41
24 3079 BOUHRISS SAADIA V2F 3 0:28:21 09:27 6.35
25 3086 LOCHTEN AMELIE V1F 5 0:28:22 09:27 6.35
26 6789 VERCAUTEREN SARAH SEF 10 0:28:23 09:28 6.34
27 3444 DELHALLE MÉLANIE SEF 11 0:28:24 09:28 6.34
28 3549 THEUNISSEN RACHEL SEF 12 0:28:25 09:28 6.33
29 3028 WYARD FABIENNE V2F 4 0:28:26 09:29 6.33
30 3034 WYARD ANGÉLIQUE V1F 6 0:28:26 09:29 6.33
31 3021 LEMILLE CHRYSTELLE SEF 13 0:28:27 09:29 6.33
32 3023 MEYNAERTS SANDRINE SEF 14 0:28:34 09:31 6.30
33 3020 LEGRAND ELANE POF 2 0:28:36 09:32 6.29
34 3033 WERON MARTINE V1F 7 0:28:36 09:32 6.29
35 3442 CAPRASSE MARINE ESPF 2 0:29:05 09:42 6.19
36 3443 DELVAUX CAMILLE SEF 15 0:29:05 09:42 6.19
37 3068 HALLEUX CHARLINE SEF 16 0:29:06 09:42 6.19
38 3483 HALLEUX FLORINE SEF 17 0:29:06 09:42 6.19
39 3001 AGACLITEPE PELIN SEF 18 0:29:14 09:45 6.16
40 3452 SALÉE CAMILLE CAF 2 0:29:32 09:51 6.09
41 3095 PIEDFORT ALIX CAF 3 0:29:32 09:51 6.09
42 3097 3097 N.N. XXX   0:29:45 09:55 6.05
43 3092 COTI ADA V2F 5 0:29:52 09:57 6.03
44 3064 IPPOLITO CATHERINE SEF 19 0:29:57 09:59 6.01
45 3065 IPPOLITO MARIE JUF 2 0:29:59 10:00 6.00
46 3446 CLOES NADINE V2F 6 0:30:00 10:00 6.00
47 3445 ORBAN VÉRONIQUE V1F 8 0:30:01 10:00 6.00
48 3015 HOUBEN NATHALIE V2F 7 0:30:02 10:01 5.99
49 3093 COLLIN MELANIE SEF 20 0:30:37 10:12 5.88
50 3078 MAULE ISABELLE V1F 9 0:30:41 10:14 5.87
51 3082 LANGE CAROLINE V1F 10 0:30:42 10:14 5.86
52 3077 GALER AMIRA JUF 3 0:30:45 10:15 5.85
53 3047 EMPAIN NATHALIE V1F 11 0:30:49 10:16 5.84
54 3081 LAHAUT DOMINIQUE V1F 12 0:30:49 10:16 5.84
55 3076 GALER EMILIE ESPF 3 0:30:50 10:17 5.84
56 3072 NGUYEN PHUONG NGA SEF 21 0:30:51 10:17 5.83
57 3044 SEPULCHRE LINDSAY SEF 22 0:30:54 10:18 5.83
58 3052 SCHOONBROODT VINCIANE V1F 13 0:31:00 10:20 5.81
59 3075 VANWAEYENBERGE EMELYNE ESPF 4 0:31:53 10:38 5.65
60 3027 PÉ CHARLOTTE SEF 23 0:31:59 10:40 5.63
61 3007 DAIWAILLE LAURENCE ESPF 5 0:31:59 10:40 5.63
62 3025 OGER AURÉLIE SEF 24 0:32:10 10:43 5.60
63 3441 DENOEL CLOTHILDE ESPF 6 0:32:57 10:59 5.46
64 3054 DETHIER ANNE V3F 1 0:33:02 11:01 5.45
65 3006 DACHELET GÉRALDINE V1F 14 0:33:31 11:10 5.37
66 3046 LAHAYE LAURENCE SEF 25 0:33:35 11:12 5.36
67 3026 OGER STÉPHANIE SEF 26 0:34:37 11:32 5.20
68 3450 LUDOVICO MARION XXX   0:35:43 11:54 5.04
69 3449 BASTENS VINCIANNE SEF 27 0:35:43 11:54 5.04
70 3053 SNYTSERS GARANCE ESPF 7 0:36:21 12:07 4.95
71 3056 DEIURE JOSIANE V2F 8 0:36:29 12:10 4.93
72 3055 GRECO JULIANA V3F 2 0:36:29 12:10 4.93
73 3088 GOGOU ANDROMACHI V1F 15 0:36:44 12:15 4.90
74 3087 GALLETTO GIUSEPPINA V2F 9 0:37:54 12:38 4.75
75 3067 JEANNE FLORENCE V3F 3 0:39:11 13:04 4.59
76 3038 VAN SWIETEN GAELLE MIF 2 0:39:11 13:04 4.59
77 3466 TRENTESEAUX LÉO ESPH 1 0:45:12 15:04 3.98
78 3040 DI GIOIA FILOMENA V2F 10 0:45:42 15:14 3.94
79 3048 DELCOUR CHRISTINE V2F 11 0:45:42 15:14 3.94
80 3039 CRESSENT BRIGITTE V3F 4 0:47:05 15:42 3.82
81 3060 BRIVADIS ERICKA SEF 28 0:52:50 17:37 3.41
82 3061 BALTHAZARD VICTORIA XXX   0:52:52 17:37 3.40
83 3062 MAROT THÉRÈSE-MARIE V2F 12 0:53:33 17:51 3.36
               
Vous pouvez trouver Le classement original sur : http://ultratiming.be
 
LA LIÉGEOISE, LE JOGGING DES FEMMES CONTRE LE CANCER - LIÈGE
DISTANCE 6.00 km
dimanche 19 septembre 2021
 
Place Dos NOM Equipe Catégorie Pl/cat Temps Temps/km Vitesse
01:00:00                
1 6150 DEPREZ LINE F.A.C. CAF 1 0:25:10 04:12 14.30
2 6724 GROSSO JESSY SERAING SEF 1 0:26:34 04:26 13.55
3 6172 CHAMPION ÉLODIE - SEF 2 0:26:53 04:29 13.39
4 6142 MEEX MYRTHE - SEF 3 0:27:05 04:31 13.29
5 3066 KAYIHURA INES RFCL CAF 2 0:27:06 04:31 13.28
6 6780 ISAKSSON FREDRIKA ASUB JUF 1 0:27:16 04:33 13.20
7 6173 DEMARTIN ZEHAB RCA SPA JUF 2 0:27:19 04:33 13.18
8 6174 GREGOIRE CELYNE - ESPF 1 0:28:35 04:46 12.59
9 6151 DEPREZ AMANDINE - CAF 3 0:29:53 04:59 12.05
10 9018 COOSEMANS MARIE - SEF 4 0:29:58 05:00 12.01
11 6709 EDIMENGO NIKKA JOGGING ATTITUD SEF 5 0:30:03 05:00 11.98
12 6721 GENEVINI PAOLA - SEF 6 0:30:04 05:01 11.97
13 6784 MORGANT ENORA - ESPF 2 0:30:08 05:01 11.95
14 6159 LAHAYE CHLOÉ - ESPF 3 0:30:22 05:04 11.86
15 6030 EL HARMOUCHI DALHAL - XXX   0:30:24 05:04 11.84
16 6100 VAN ORMELINGEN SOPHIE - SEF 7 0:30:37 05:06 11.76
17 9025 DELL?UTRI TANINA - V1F 1 0:30:43 05:07 11.72
18 9063 PITTIER MARIANNE - SEF 8 0:30:43 05:07 11.72
19 9017 COOSEMANS ELISE - SEF 9 0:30:48 05:08 11.69
20 6714 TANASE ARIELLE JIA V2F 1 0:31:01 05:10 11.61
21 6804 WEHENKEL MARIE - SEF 10 0:31:30 05:15 11.43
22 6824 CREEMERS FANNY - SEF 11 0:31:30 05:15 11.43
23 6782 NOEL DELPHINE - SEF 12 0:31:31 05:15 11.42
24 6124 BAUGNET ELISE JIA SEF 13 0:31:34 05:16 11.40
25 6009 BRANDENBOURG MAIVA - SEF 14 0:31:58 05:20 11.26
26 6778 COURTOIS LÉANE QUIMPER ORIENTA JUF 3 0:32:43 05:27 11.00
27 6779 BERTHOLOM ENORA - JUF 4 0:32:44 05:27 11.00
28 6191 PAVONI MATHILDE - ESPF 4 0:32:47 05:28 10.98
29 6759 HICK GERALDINE - SEF 15 0:32:47 05:28 10.98
30 6745 BRIAMONT HÉLÈNE RFCL SEF 16 0:32:53 05:29 10.95
31 6781 NOEL CHARLOTTE - SEF 17 0:32:59 05:30 10.91
32 6112 MAREELS MARGAUX - ESPF 5 0:33:14 05:32 10.83
33 6020 DEBROUX ANNICK - V1F 2 0:33:17 05:33 10.82
34 9009 BIHAIN MÉLODY - SEF 18 0:33:20 05:33 10.80
35 6001 ABBATE VALENTINE - SEF 19 0:33:21 05:34 10.79
36 6747 WAWRZYNIAK CHANTAL TRIBIKESTATION V3F 1 0:33:22 05:34 10.79
37 6010 BREPOELS CHARLOTTE - SEF 20 0:33:32 05:35 10.74
38 6820 CORMAN MANON - SEF 21 0:33:35 05:36 10.72
39 6099 UMINA LETIZIA - SEF 22 0:33:46 05:38 10.66
40 6098 TOSSENS FANNY - SEF 23 0:33:46 05:38 10.66
41 6708 GAUSSIN NATACHA ATHLÉ ST-GEORGE JUF 5 0:34:04 05:41 10.57
42 6706 MAURISSEN NINA ATHLÉ ST-GEORGE CAF 4 0:34:05 05:41 10.56
43 6160 LAHAYE NOÉMIE - JUF 6 0:34:22 05:44 10.48
44 6705 SIMONIS MARYSE - SEF 24 0:34:26 05:44 10.45
45 6165 KITOSKIS STÉPHANIE - SEF 25 0:34:27 05:45 10.45
46 6806 KEMPENEERS ALICIA - ESPF 6 0:34:30 05:45 10.43
47 6807 MOREAU SACHA - ESPF 7 0:34:30 05:45 10.43
48 6175 OLIVIERI VIRGINIE JIA V1F 3 0:34:45 05:47 10.36
49 6829 SPITZ HÉLÈNE - SEF 26 0:34:49 05:48 10.34
50 6790 NIHOUL ANNE-LAURE KAÉ-BG FLÉMALLE SEF 27 0:35:01 05:50 10.28
51 6710 VERMEIREN MARION RFCL MIF 1 0:35:12 05:52 10.23
52 6119 JAMOULLE YSALINE - SEF 28 0:35:27 05:55 10.16
53 6719 SALL SOLÈNE - CAF 5 0:35:38 05:56 10.10
54 6720 THIRION CLARA - CAF 6 0:35:38 05:56 10.10
55 6163 DEMARIA ELEONORA - SEF 29 0:35:39 05:56 10.10
56 6741 MANCINI VALÉRIE - V1F 4 0:35:59 06:00 10.00
57 6702 MANN AVIVA - SEF 30 0:36:00 06:00 10.00
58 6092 SON MARIE - SEF 31 0:36:04 06:01 9.98
59 6740 BONETTI CARINE - V1F 5 0:36:06 06:01 9.97
60 6183 LEMAIRE EVELYNE - V2F 2 0:36:11 06:02 9.95
61 6185 TROTIN ALISSON - SEF 32 0:36:21 06:03 9.90
62 6743 ABRAN LOUISE - SEF 33 0:36:22 06:04 9.90
63 6701 SACHELI ROSALIE - SEF 34 0:36:25 06:04 9.89
64 6032 FLAGOTHIER NELL - MIF 2 0:36:32 06:05 9.85
65 6044 GUILLAUME VALENTINE - SEF 35 0:36:38 06:06 9.83
66 6196 BAOUCHE MIRIAM - V1F 6 0:36:41 06:07 9.81
67 6188 BAILLY CHRISTELLE - V1F 7 0:36:44 06:07 9.80
68 6190 MANAMA MARIE HELENA - V1F 8 0:36:44 06:07 9.80
69 6039 GILLIS MÉLANIE - SEF 36 0:36:58 06:10 9.74
70 6123 MATHONET CÉLINE - SEF 37 0:37:00 06:10 9.73
71 6045 HANNOSSET PAULINE - SEF 38 0:37:14 06:12 9.67
72 6776 DI GRANDE ANTONELLA - V1F 9 0:37:18 06:13 9.65
73 6059 LENZ FLORENCE - SEF 39 0:37:18 06:13 9.65
74 6115 BALTUS MARIE - SEF 40 0:37:26 06:14 9.62
75 6711 FILLÉE SÉVERINE - V1F 10 0:37:35 06:16 9.58
76 6093 STALS JACQUELINE - V2F 3 0:37:37 06:16 9.57
77 6718 RYCKAERT JACQUELINE - V2F 4 0:37:44 06:17 9.54
78 6703 BEAUDUIN ELS - V1F 11 0:38:04 06:21 9.46
79 6774 MUYTERS VALERIE - V1F 12 0:38:05 06:21 9.45
80 6735 CLAESEN MARJORIE - SEF 41 0:38:15 06:22 9.41
81 6734 DANIS FLORIE - SEF 42 0:38:15 06:22 9.41
82 6770 BOUSSART VANESSA - V1F 13 0:38:17 06:23 9.40
83 6102 VERVIER JULIE RUNNING CLUB SO SEF 43 0:38:21 06:23 9.39
84 6802 MORFOUASSE ALEXIANE - ESPF 8 0:38:23 06:24 9.38
85 6801 FRERET MORGANE - ESPF 9 0:38:24 06:24 9.38
86 6168 PION MARIE - ESPF 10 0:38:32 06:25 9.34
87 6767 COLLIGNON LARA ZATAC LIEGE SEF 44 0:38:35 06:26 9.33
88 6171 PAHAUT JUSTIN - SEF 45 0:38:37 06:26 9.32
89 6023 DEWARD CATHERINE - V1F 14 0:38:39 06:27 9.31
90 6712 FILLEE MÉLANIE - V1F 15 0:38:48 06:28 9.28
91 6073 PALMANS STÉPHANIE - V1F 16 0:38:49 06:28 9.27
92 6050 HUSSON VIRGINIE - SEF 46 0:38:57 06:29 9.24
93 6749 ROYEN ÉLODIE - SEF 47 0:38:58 06:30 9.24
94 6750 DUCACHET BARBARA - SEF 48 0:39:11 06:32 9.19
95 6156 FALLA ANNABELLE - SEF 49 0:39:13 06:32 9.18
96 6143 GUILLAUME LAURE-VIRIGINE - V1F 17 0:39:16 06:33 9.17
97 6067 NICOSIA JULIE - SEF 50 0:39:17 06:33 9.16
98 6070 OBLIN NOÉMIE - SEF 51 0:39:17 06:33 9.16
99 12046 MARIN PAULINE - SEF 52 0:39:19 06:33 9.16
100 6111 SABATINI SARAH - ESPF 11 0:39:20 06:33 9.15
101 6751 KABWE JEANNE - V2F 5 0:39:21 06:34 9.15
102 6732 RION SOPHIE - SEF 53 0:39:21 06:34 9.15
103 6133 LUTHI NATHALIE - V1F 18 0:39:24 06:34 9.14
104 6003 BEAUJEAN ISABELLE - V1F 19 0:39:31 06:35 9.11
105 6791 DEGEY ANNE-LOUISE AUCUB XXX   0:39:34 06:36 9.10
106 6783 SOQUETTE CÉCILE - SEF 54 0:39:34 06:36 9.10
107 6793 MARTIN AMANDINE AUCUN SEF 55 0:39:34 06:36 9.10
108 6135 DECK VICTOIRE - CAF 7 0:39:36 06:36 9.09
109 6134 FOLMER LOLA - JUF 7 0:39:36 06:36 9.09
110 6746 CHAPELIER DELPHINE - SEF 56 0:39:39 06:36 9.08
111 6771 DAMAS MANON - BEF 1 0:39:39 06:36 9.08
112 6109 FESTERS NANCY - V2F 6 0:39:40 06:37 9.08
113 6131 MOISSE LAURA - SEF 57 0:39:40 06:37 9.08
114 6083 ROMAN DOMINIQUE - V3F 2 0:39:55 06:39 9.02
115 6194 PIRENNE HELENE - SEF 58 0:39:59 06:40 9.00
116 6110 HEYNEN ANNE-SOPHIE - SEF 59 0:40:00 06:40 9.00
117 6158 MALEMPRÉ ISABELLE - V1F 20 0:40:01 06:40 9.00
118 6125 TIBURZI SARAH - SEF 60 0:40:09 06:42 8.97
119 6127 LEWANDOWSKI ALEXANDRA - V1F 21 0:40:09 06:42 8.97
120 6811 HALGAND MELANIE - SEF 61 0:40:18 06:43 8.93
121 6792 TASSIN CORALIE AUCUN SEF 62 0:40:27 06:44 8.90
122 6828 TASSIN LOUISE - SEF 63 0:40:27 06:44 8.90
123 6072 PALMANS CAROLINE - SEF 64 0:40:29 06:45 8.89
124 6048 HEEREN BÉNÉDICTE - SEF 65 0:40:33 06:45 8.88
125 6084 RULEN VANESSA - SEF 66 0:40:33 06:45 8.88
126 6147 RAMAEKERS AGNÈS - SEF 67 0:40:39 06:46 8.86
127 6777 LEMMENS JULIE - SEF 68 0:40:44 06:47 8.84
128 6762 TRAN HANH - SEF 69 0:40:48 06:48 8.82
129 6763 YODTS CHARLOTTE - SEF 70 0:40:48 06:48 8.82
130 6166 ROELANDT MURIEL - V2F 7 0:40:48 06:48 8.82
131 6094 SWAAB LAURA - SEF 71 0:40:52 06:49 8.81
132 6821 DALE MARINE - ESPF 12 0:40:57 06:49 8.79
133 6817 BRUWIER EMILIE - SEF 72 0:41:01 06:50 8.78
134 6144 PARISIS CHLOÉ - SEF 73 0:41:01 06:50 8.78
135 6063 MÉLON JULIETTE - SEF 74 0:41:02 06:50 8.77
136 6053 JUVIJNS MARIE - SEF 75 0:41:08 06:51 8.75
137 6766 TURK FRANCINE ZATAC LIEGE V2F 8 0:41:19 06:53 8.71
138 6177 DIMAIRA DOMINIQUE - V1F 22 0:41:20 06:53 8.71
139 6179 COSTANO MARISOL - V1F 23 0:41:20 06:53 8.71
140 6154 PIROTTE VALÉRIE - SEF 76 0:41:23 06:54 8.70
141 6176 RUSSO ROSA - V1F 24 0:41:25 06:54 8.69
142 6026 DI FRESCO TANIA - SEF 77 0:41:30 06:55 8.67
143 6025 DI FRESCO FRANCESCA - SEF 78 0:41:30 06:55 8.67
144 6704 SIMONIS CAMILLE - SEF 79 0:41:35 06:56 8.66
145 6162 PHILIPPE FLORINE - SEF 80 0:41:37 06:56 8.65
146 6161 OLIVIER MARY-LINE - V1F 25 0:41:37 06:56 8.65
147 6049 HIGNY GENEVIEVE - V1F 26 0:41:37 06:56 8.65
148 6772 CAMUS ALEXANDRA - SEF 81 0:41:38 06:56 8.65
149 6146 LERUTH VINCIANE - SEF 82 0:41:40 06:57 8.64
150 6197 BAOUCHE NADIA - SEF 83 0:41:40 06:57 8.64
151 6748 LACROSSE MURIELLE - V1F 27 0:41:42 06:57 8.63
152 6145 NOEL CAROLINE - SEF 84 0:41:42 06:57 8.63
153 6085 SALMON MORGANE - SEF 85 0:41:48 06:58 8.61
154 6803 SLUSE LAURA - SEF 86 0:41:49 06:58 8.61
155 6107 WUIDARD FLORIANE - SEF 87 0:41:50 06:58 8.61
156 6060 LEVOZ MARINE - SEF 88 0:41:51 06:58 8.60
157 6773 KANKINDI JACQUELINE - V1F 28 0:41:57 07:00 8.58
158 6137 MULLENDERS ANABELLE - V1F 29 0:42:04 07:01 8.56
159 6157 BREYER NATHALIE - V1F 30 0:42:04 07:01 8.56
160 6725 DONA BÉNÉDICTE - V1F 31 0:42:05 07:01 8.55
161 6739 BECKERS MARIE-FRANCE - V1F 32 0:42:06 07:01 8.55
162 6138 GUFFENS COLETTE - V2F 9 0:42:07 07:01 8.55
163 6114 LAURENSIS ALICE - SEF 89 0:42:10 07:02 8.54
164 6008 BOURS SANDRINE - V1F 33 0:42:12 07:02 8.53
165 6051 JACOB CRYSTEL - V1F 34 0:42:13 07:02 8.53
166 6017 DE PAOLI MILÉNA RUN4FUN SEF 90 0:42:34 07:06 8.46
167 6113 BOTTE MARIE - ESPF 13 0:42:34 07:06 8.46
168 6081 PLUMIER ISABELLE RUNNING CLUB SO V2F 10 0:42:38 07:06 8.44
169 6794 SCHEPERS MARIE - SEF 91 0:42:45 07:08 8.42
170 6815 BRESCICH MEGANE - SEF 92 0:42:45 07:08 8.42
171 6816 MARCHICA TERESE - V1F 35 0:42:45 07:08 8.42
172 6095 TANS ROSINE - V3F 3 0:42:53 07:09 8.39
173 6096 TANS PAULINE - JUF 8 0:42:53 07:09 8.39
174 6097 THONNART AURORE - SEF 93 0:43:04 07:11 8.36
175 6065 MENDOLA LAURANE - SEF 94 0:43:04 07:11 8.36
176 6006 6006 N.N. - XXX   0:43:05 07:11 8.36
177 6057 LEMEUNIER MARIE - SEF 95 0:43:06 07:11 8.35
178 6069 NOËL EURYDICE - V1F 36 0:43:06 07:11 8.35
179 6823 DENIM LOUISE - BEF 2 0:43:07 07:11 8.35
180 6819 PERROTIN TIFFANY - ESPF 14 0:43:07 07:11 8.35
181 6813 DOMMERGUES CHLOÉ - SEF 96 0:43:08 07:11 8.35
182 6818 GUILLEMIN LEA - ESPF 15 0:43:08 07:11 8.35
183 6129 RASSAA INES - POF 1 0:43:09 07:11 8.34
184 6128 HEDEBOUW LINE - V1F 37 0:43:09 07:11 8.34
185 6822 ART TANIA - V3F 4 0:43:09 07:11 8.34
186 6788 RULOT CATHERINE KAÉ-BG FLÉMALLE SEF 97 0:43:10 07:12 8.34
187 6152 LEGRAND LHÉA ATHLÉTISME ST-G BEF 3 0:43:11 07:12 8.34
188 6035 GANOZA ISABEL - V1F 38 0:43:11 07:12 8.34
189 6033 FLAGOTHIER CHARLOTTE - SEF 98 0:43:12 07:12 8.33
190 6153 BLAIRON VALÉRIANE - SEF 99 0:43:12 07:12 8.33
191 6164 FRISAN GISÈLE - V1F 39 0:43:12 07:12 8.33
192 6077 PIRARD YANNICK - SEF 100 0:43:14 07:12 8.33
193 6076 PICQUOT VIRGINIE - V1F 40 0:43:14 07:12 8.33
194 6182 MEYERS VERONIQUE - V1F 41 0:43:16 07:13 8.32
195 6825 LIBERT MÉLANIE - SEF 101 0:43:24 07:14 8.29
196 6192 6192 N.N. - XXX   0:43:50 07:18 8.21
197 6058 LENELLE CHARLOTTE - SEF 102 0:43:50 07:18 8.21
198 6075 PERIN MARIE - SEF 103 0:43:50 07:18 8.21
199 6016 DE BASTIANI CORINE - V1F 42 0:43:55 07:19 8.20
200 6079 PIRONET PAULINE - SEF 104 0:43:56 07:19 8.19
201 6068 NIHOUL CAROLINE - V2F 11 0:43:57 07:19 8.19
202 6116 MENDOLA JUSTINE - SEF 105 0:43:59 07:20 8.18
203 6024 DI FRESCO GIOVANNA - V1F 43 0:44:13 07:22 8.14
204 6013 CRENIER VIRGINIE MPW-HJM V1F 44 0:44:13 07:22 8.14
205 6089 SERVAES PATRICIA - V2F 12 0:44:13 07:22 8.14
206 6729 YE XIULING - V2F 13 0:44:16 07:23 8.13
207 6730 CHOU MARIE - SEF 106 0:44:16 07:23 8.13
208 6787 GEUTEN NANCY RDV RUN BEYNE H V1F 45 0:44:19 07:23 8.12
209 6786 MERCIER SYLVIE RDV RUN BEYNE H V2F 14 0:44:19 07:23 8.12
210 6810 DAELMAN LAURENCE - V1F 46 0:44:21 07:23 8.12
211 6808 BALHAN FABIENNE - V1F 47 0:44:21 07:23 8.12
212 6809 CAMPIOLI SABINE - V1F 48 0:44:22 07:24 8.11
213 6141 BEAUVE LUCIE - ESPF 16 0:44:22 07:24 8.11
214 6130 EVRARD JULIANE - SEF 107 0:44:38 07:26 8.07
215 6187 OSCHMANN MURIELLE - V1F 49 0:44:39 07:26 8.06
216 6713 GRIDELET ANNE-FRANCE RUNASTOCK V1F 50 0:44:43 07:27 8.05
217 6785 MAMOFEDE TARA - V1F 51 0:45:06 07:31 7.98
218 6021 DELREZ MARIE RUNNIG FOR ALL V1F 52 0:45:07 07:31 7.98
219 6126 CELORIO LOPEZ TANIA - CAF 8 0:45:08 07:31 7.98
220 6148 RADERMECKER GENEVIÈVE - SEF 108 0:45:10 07:32 7.97
221 6193 BONAVENTURE CHANELLE - SEF 109 0:45:11 07:32 7.97
222 6046 HARDY JUSTINE - SEF 110 0:45:12 07:32 7.96
223 6036 GARDIER PASCALE - V2F 15 0:45:15 07:32 7.96
224 6180 PRIJOT ISABELLE - V2F 16 0:45:18 07:33 7.95
225 6805 PURPURA LAURA - ESPF 17 0:45:33 07:35 7.90
226 6019 DEBOUNY PASCALE RUNNING CLUB SO V2F 17 0:45:37 07:36 7.89
227 6104 VONCKEN BERNADETTE RUNNING CLUB SO V3F 5 0:45:37 07:36 7.89
228 6118 BLOKKEN ROXANE - V1F 53 0:45:51 07:39 7.85
229 6731 COLLET SOPHIE - V1F 54 0:45:52 07:39 7.85
230 6087 SALVAGIO SAFIA - MIF 3 0:46:13 07:42 7.79
231 6775 CHANTRAINE VALENTINE - SEF 111 0:46:32 07:45 7.74
232 6764 GILLARD EMILIE - ESPF 18 0:46:50 07:48 7.69
233 6061 LIBERTIAUX MARINA RUN4FUN V1F 55 0:47:01 07:50 7.66
234 6088 SCHEMBRI EMILIE - MIF 4 0:47:20 07:53 7.61
235 6066 MOUSSET ANNE - V1F 56 0:47:20 07:53 7.61
236 6186 LENOCI SHANIA - JUF 9 0:47:38 07:56 7.56
237 6184 TROTIN LISA - CAF 9 0:47:38 07:56 7.56
238 6717 GRECO ANTONIA RUNNING FOR ALL V2F 18 0:47:39 07:57 7.56
239 6140 DUPUIS ALIX - SEF 112 0:48:02 08:00 7.49
240 6139 SOURIS MAGALI - SEF 113 0:48:02 08:00 7.49
241 6826 SALMON MIREILLE - V4F 1 0:48:24 08:04 7.44
242 6727 FALKENBERG NOÉMI - SEF 114 0:49:14 08:12 7.31
243 6080 PIROTTE VÉRONIQUE RUNNING CLUB SO V2F 19 0:49:21 08:13 7.29
244 6014 D'ALESSANDRO PAOLA RUNNING CLUB SO V2F 20 0:49:21 08:13 7.29
245 6029 DUCHESNE GENEVIEVE RUNNING CLUB SO V2F 21 0:49:21 08:13 7.29
246 6167 LOMBARDO ISABELLE FLERON V1F 57 0:49:22 08:14 7.29
247 6723 BREUWER VERONIQUE - V2F 22 0:49:28 08:15 7.28
248 6722 HANSOULLE CARINE - V2F 23 0:49:29 08:15 7.28
249 6034 FUMAL MAÏTÉ - SEF 115 0:49:29 08:15 7.28
250 6027 DI FRESCO SILVANA - SEF 116 0:49:42 08:17 7.24
251 6155 NIZET OCÉANE - ESPF 19 0:49:48 08:18 7.23
252 6078 PIRON FREDERIQUE - V2F 24 0:51:16 08:33 7.02
253 6007 BOSQUET DANIELE - V3F 6 0:51:35 08:36 6.98
254 6195 MARNEFFE MARIE-HELENE - V2F 25 0:51:38 08:36 6.97
255 6726 KERGER ANNE - V1F 58 0:52:06 08:41 6.91
256 6121 JOB CATHERINE - V1F 59 0:52:35 08:46 6.85
257 6101 VANGELDER AMANDINE - SEF 117 0:54:13 09:02 6.64
258 6015 D?AMICO MARINA - SEF 118 0:54:14 09:02 6.64
259 6728 BACCIGALOPI DOROTHY - V3F 7 0:55:56 09:19 6.44
260 6082 POUMAY MAGALI - SEF 119 0:57:48 09:38 6.23
261 6074 PERAU VANESSA - SEF 120 0:57:50 09:38 6.22
262 6117 LUPCIN FRÉDÉRIQUE - V1F 60 1:04:32 10:45 5.58
263 6043 GRENSON DOMINIQUE - V1F 61 1:04:32 10:45 5.58
264 6200 GRAINDORETE CARINE - V2F 26 1:04:32 10:45 5.58
265 6005 BOERENS NATHALIE - V1F 62 1:08:52 11:29 5.23
266 6055 LEDENT MARTINE - V3F 8 1:08:52 11:29 5.23
267 6753 NIBUS STÉPHANIE - V1F 63 1:14:18 12:23 4.85
268 6752 NIESSEN NATHALIE - SEF 121 1:14:19 12:23 4.84
269 6756 DOLCE JUSTINE - SEF 122 1:14:19 12:23 4.84
270 6754 LATOUR SANDRINE - V1F 64 1:15:45 12:37 4.75
271 6758 BOZET VINCIANE - V1F 65 1:16:29 12:45 4.71
272 6757 CRAHAY ASTRID - V1F 66 1:17:06 12:51 4.67
273 6052 JAMAR CHANTAL - V2F 27 1:19:52 13:19 4.51
274 6037 GENTILE EMILIA - V4F 2 1:19:54 13:19 4.51
275 6064 MENCONI MARIU - V4F 3 1:20:28 13:25 4.47
276 6056 LEENDERS JULIENNE - V3F 9 1:20:29 13:25 4.47
277 6038 GEORGES VÉRONIQUE - V2F 28 1:20:29 13:25 4.47
                 
Nos dernières videos